| time (UTC) | temp C | wind direction | speed KPH | gust KPH | rain 1hr cm | rain 24hr cm | rain mn cm | humidity % | barometer mb |
| 20260504215334 | 28 | 50 | 4.8 | 11.3 | 0.00 | 0.00 | 0.00 | 41 | 1011.7 |
| 20260504214403 | -17 | 125 | 3.2 | 4.8 | 0.00 | 0.00 | 0.00 | 38 | 1011.6 |
| 20260504213346 | 29 | 215 | 3.2 | 8.0 | 0.00 | 0.00 | 0.00 | 38 | 1011.6 |
| 20260504212330 | 29 | 305 | 3.2 | 9.7 | 0.00 | 0.00 | 0.00 | 36 | 1011.7 |
| 20260504211335 | 28 | 307 | 4.8 | 9.7 | 0.00 | 0.00 | 0.00 | 36 | 1011.9 |
| 20260504210344 | 29 | 323 | 1.6 | 4.8 | 0.00 | 0.00 | 0.00 | 38 | 1011.9 |
| 20260504205347 | 29 | 237 | 1.6 | 9.7 | 0.00 | 0.00 | 0.00 | 36 | 1011.9 |
| 20260504204331 | 29 | 204 | 3.2 | 9.7 | 0.00 | 0.00 | 0.00 | 36 | 1011.9 |
| 20260504203355 | 29 | 301 | 3.2 | 8.0 | 0.00 | 0.00 | 0.00 | 36 | 1011.9 |
| 20260504202343 | 29 | 160 | 3.2 | 8.0 | 0.00 | 0.00 | 0.00 | 38 | 1011.9 |
| 20260504201329 | 29 | 155 | 3.2 | 11.3 | 0.00 | 0.00 | 0.00 | 37 | 1012.3 |
| 20260504200335 | 30 | 190 | 4.8 | 9.7 | 0.00 | 0.00 | 0.00 | 37 | 1012.3 |
| 20260504195338 | 29 | 203 | 4.8 | 12.9 | 0.00 | 0.00 | 0.00 | 37 | 1012.4 |
| 20260504194338 | 29 | 170 | 3.2 | 11.3 | 0.00 | 0.00 | 0.00 | 37 | 1012.6 |
| 20260504193336 | 28 | 120 | 1.6 | 8.0 | 0.00 | 0.00 | 0.00 | 37 | 1012.6 |
| 20260504192338 | 29 | 131 | 3.2 | 8.0 | 0.00 | 0.00 | 0.00 | 37 | 1012.8 |
| 20260504191339 | 29 | 243 | 0.0 | 8.0 | 0.00 | 0.00 | 0.00 | 34 | 1012.9 |
| 20260504190330 | 29 | 57 | 1.6 | 8.0 | 0.00 | 0.00 | 0.00 | 34 | 1012.9 |
| 20260504185336 | -17 | 311 | 3.2 | 8.0 | 0.00 | 0.00 | 0.00 | 39 | 1013.2 |
| 20260504184342 | 28 | 224 | 3.2 | 8.0 | 0.00 | 0.00 | 0.00 | 39 | 1013.5 |
| 20260504183343 | 28 | 180 | 4.8 | 12.9 | 0.00 | 0.00 | 0.00 | 40 | 1013.5 |
| 20260504182344 | -17 | 130 | 4.8 | 8.0 | 0.00 | 0.00 | 0.00 | 37 | 1013.8 |
| 20260504181345 | 28 | 121 | 4.8 | 12.9 | 0.00 | 0.00 | 0.00 | 37 | 1014.1 |
| 20260504180351 | 28 | 234 | 3.2 | 8.0 | 0.00 | 0.00 | 0.00 | 40 | 1014.1 |
| 20260504175332 | 28 | 198 | 3.2 | 8.0 | 0.00 | 0.00 | 0.00 | 41 | 1014.2 |
| 20260504174333 | -17 | 203 | 3.2 | 11.3 | 0.00 | 0.00 | 0.00 | 43 | 1014.4 |
| 20260504173334 | 28 | 182 | 3.2 | 11.3 | 0.00 | 0.00 | 0.00 | 39 | 1014.4 |
| 20260504172400 | 28 | 176 | 4.8 | 16.1 | 0.00 | 0.00 | 0.00 | 39 | 1014.4 |
| 20260504171343 | -17 | 101 | 4.8 | 11.3 | 0.00 | 0.00 | 0.00 | 40 | 1014.5 |
| 20260504170344 | 28 | 169 | 4.8 | 9.7 | 0.00 | 0.00 | 0.00 | 40 | 1014.5 |
| 20260504160338 | -17 | 179 | 3.2 | 9.7 | 0.00 | 0.00 | 0.00 | 46 | 1015.1 |
| 20260504150340 | 26 | 84 | 4.8 | 11.3 | 0.00 | 0.00 | 0.00 | 51 | 1015.5 |
| 20260504140331 | 24 | 231 | 6.4 | 14.5 | 0.00 | 0.00 | 0.00 | 58 | 1015.1 |
| 20260504130344 | 22 | 145 | 4.8 | 9.7 | 0.00 | 0.00 | 0.00 | 65 | 1014.9 |
| 20260504110336 | 17 | 203 | 1.6 | 3.2 | 0.00 | 0.00 | 0.00 | 79 | 1014.0 |
| 20260504100333 | 17 | 132 | 3.2 | 4.8 | 0.00 | 0.00 | 0.00 | 79 | 1014.1 |
| 20260504081343 | 19 | 110 | 1.6 | 4.8 | 0.00 | 0.00 | 0.00 | 75 | 1014.0 |
| 20260504080405 | 19 | 232 | 1.6 | 6.4 | 0.00 | 0.00 | 0.00 | 75 | 1014.0 |
| 20260504070406 | -17 | 199 | 1.6 | 4.8 | 0.00 | 0.00 | 0.00 | 76 | 1014.5 |
| 20260504050355 | 21 | 174 | 1.6 | 4.8 | 0.00 | 0.00 | 0.00 | 71 | 1015.0 |
| 20260504045339 | 21 | 175 | 0.0 | 4.8 | 0.00 | 0.00 | 0.00 | 70 | 1015.0 |
| 20260504044340 | -17 | 174 | 0.0 | 4.8 | 0.00 | 0.00 | 0.00 | 70 | 1015.0 |
| 20260504043345 | 21 | 205 | 1.6 | 4.8 | 0.00 | 0.00 | 0.00 | 69 | 1015.0 |
| 20260504042406 | 22 | 215 | 0.0 | 4.8 | 0.00 | 0.00 | 0.00 | 69 | 1015.5 |
| 20260504041328 | 22 | 224 | 3.2 | 6.4 | 0.00 | 0.00 | 0.00 | 68 | 1015.6 |
| 20260504040333 | -17 | 205 | 1.6 | 4.8 | 0.00 | 0.00 | 0.00 | 68 | 1015.6 |
| 20260504035333 | 22 | 201 | 1.6 | 8.0 | 0.00 | 0.00 | 0.00 | 68 | 1015.6 |
| 20260504034335 | 22 | 200 | 1.6 | 4.8 | 0.00 | 0.00 | 0.00 | 68 | 1015.5 |
| 20260504033333 | 22 | 198 | 0.0 | 4.8 | 0.00 | 0.00 | 0.00 | 67 | 1015.5 |
| 20260504032356 | 22 | 198 | 1.6 | 3.2 | 0.00 | 0.00 | 0.00 | 66 | 1015.5 |
| 20260504031346 | 22 | 199 | 0.0 | 3.2 | 0.00 | 0.00 | 0.00 | 66 | 1015.4 |
| 20260504030347 | 22 | 199 | 1.6 | 4.8 | 0.00 | 0.00 | 0.00 | 64 | 1015.4 |
| 20260504025329 | -17 | 199 | 1.6 | 4.8 | 0.00 | 0.00 | 0.00 | 64 | 1015.4 |
| 20260504024330 | 22 | 189 | 1.6 | 4.8 | 0.00 | 0.00 | 0.00 | 65 | 1015.1 |
| 20260504023356 | 22 | 189 | 1.6 | 4.8 | 0.00 | 0.00 | 0.00 | 65 | 1015.1 |
| 20260504022337 | -17 | 199 | 1.6 | 4.8 | 0.00 | 0.00 | 0.00 | 65 | 1015.0 |
| 20260504021340 | 22 | 175 | 0.0 | 3.2 | 0.00 | 0.00 | 0.00 | 66 | 1014.8 |
| 20260504020402 | 22 | 177 | 1.6 | 6.4 | 0.00 | 0.00 | 0.00 | 66 | 1014.8 |
| 20260504015327 | 22 | 162 | 1.6 | 4.8 | 0.00 | 0.00 | 0.00 | 65 | 1014.5 |
| 20260504014330 | -17 | 182 | 1.6 | 3.2 | 0.00 | 0.00 | 0.00 | 65 | 1014.4 |
| 20260504013333 | 22 | 188 | 1.6 | 4.8 | 0.00 | 0.00 | 0.00 | 64 | 1014.4 |
| 20260504012334 | 22 | 116 | 1.6 | 3.2 | 0.00 | 0.00 | 0.00 | 63 | 1014.2 |
| 20260504011356 | -17 | 115 | 1.6 | 6.4 | 0.00 | 0.00 | 0.00 | 63 | 1014.0 |
| 20260504010343 | 23 | 201 | 3.2 | 6.4 | 0.00 | 0.00 | 0.00 | 62 | 1014.0 |
| 20260504005345 | 23 | 172 | 1.6 | 4.8 | 0.00 | 0.05 | 0.00 | 62 | 1013.9 |
| 20260504004346 | -17 | 171 | 1.6 | 4.8 | 0.00 | 0.05 | 0.00 | 61 | 1013.6 |
| 20260504003348 | 23 | 181 | 3.2 | 8.0 | 0.00 | 0.05 | 0.00 | 61 | 1013.6 |
| 20260504002334 | 23 | 92 | 1.6 | 6.4 | 0.00 | 0.05 | 0.00 | 61 | 1013.4 |
| 20260504001335 | 23 | 150 | 1.6 | 6.4 | 0.00 | 0.05 | 0.00 | 61 | 1013.3 |
| 20260504000401 | 23 | 169 | 1.6 | 6.4 | 0.00 | 0.05 | 0.00 | 60 | 1013.3 |
| 20260503235341 | 23 | 150 | 1.6 | 6.4 | 0.00 | 0.05 | 0.00 | 61 | 1013.4 |
| 20260503234343 | 24 | 87 | 1.6 | 8.0 | 0.00 | 0.05 | 0.00 | 59 | 1013.4 |
| 20260503233349 | 24 | 77 | 3.2 | 6.4 | 0.00 | 0.05 | 0.00 | 58 | 1013.4 |
| 20260503232350 | 24 | 145 | 3.2 | 9.7 | 0.00 | 0.05 | 0.00 | 58 | 1013.4 |
| 20260503231332 | 25 | 113 | 1.6 | 6.4 | 0.00 | 0.05 | 0.00 | 57 | 1013.2 |
| 20260503230337 | 25 | 109 | 3.2 | 8.0 | 0.00 | 0.05 | 0.00 | 57 | 1013.2 |
| 20260503225341 | 25 | 138 | 3.2 | 8.0 | 0.00 | 0.05 | 0.00 | 57 | 1013.2 |
| 20260503224342 | 25 | 66 | 4.8 | 8.0 | 0.00 | 0.05 | 0.00 | 56 | 1013.3 |
| 20260503223343 | 25 | 114 | 3.2 | 9.7 | 0.00 | 0.05 | 0.00 | 56 | 1013.3 |
| 20260503222344 | 25 | 46 | 4.8 | 11.3 | 0.00 | 0.05 | 0.00 | 54 | 1013.3 |
| 20260503221331 | 26 | 116 | 3.2 | 9.7 | 0.00 | 0.05 | 0.00 | 55 | 1013.3 |
| 20260503220332 | 26 | 39 | 3.2 | 9.7 | 0.00 | 0.05 | 0.00 | 54 | 1013.3 |